| time (UTC) | temp F | wind direction | speed knots | gust knots | rain 1hr in | rain 24hr in | rain mn in | humidity % | barometer mb |
| 20260903234951 | 89 | 106 | 0.0 | 0.0 | 0.00 | 0.00 | 0.00 | 74 | 1009.2 |
| 20260903234449 | 89 | 144 | 0.0 | 0.0 | 0.00 | 0.00 | 0.00 | 73 | 1009.2 |
| 20260903234216 | 89 | 149 | 0.0 | 0.0 | 0.00 | 0.00 | 0.00 | 73 | 1009.2 |
| 20260903233704 | 90 | 163 | 0.0 | 0.9 | 0.00 | 0.00 | 0.00 | 72 | 1009.2 |
| 20260903232945 | 90 | 166 | 0.0 | 1.7 | 0.00 | 0.00 | 0.00 | 72 | 1009.2 |
| 20260903232713 | 90 | 103 | 0.0 | 1.7 | 0.00 | 0.00 | 0.00 | 71 | 1009.2 |
| 20260903231943 | 90 | 172 | 0.0 | 0.9 | 0.00 | 0.00 | 0.00 | 72 | 1009.2 |
| 20260903231709 | 90 | 211 | 0.0 | 0.9 | 0.00 | 0.00 | 0.00 | 71 | 1009.5 |
| 20260903230944 | 90 | 189 | 0.0 | 0.9 | 0.00 | 0.00 | 0.00 | 71 | 1009.5 |
| 20260903230447 | 90 | 186 | 0.0 | 2.6 | 0.00 | 0.00 | 0.00 | 71 | 1009.5 |
| 20260903225949 | 90 | 169 | 0.9 | 4.3 | 0.00 | 0.00 | 0.00 | 71 | 1009.7 |
| 20260903225441 | 90 | 167 | 0.0 | 4.3 | 0.00 | 0.00 | 0.00 | 70 | 1009.7 |
| 20260903224929 | 90 | 94 | 0.0 | 1.7 | 0.00 | 0.00 | 0.00 | 70 | 1009.7 |
| 20260903224417 | 91 | 191 | 0.0 | 0.9 | 0.00 | 0.00 | 0.00 | 70 | 1009.7 |
| 20260903223906 | 91 | 173 | 0.0 | 4.3 | 0.00 | 0.00 | 0.00 | 69 | 1009.7 |
| 20260903223353 | 91 | 207 | 0.0 | 4.3 | 0.00 | 0.00 | 0.00 | 69 | 1009.7 |
| 20260903222846 | 91 | 179 | 0.0 | 0.9 | 0.00 | 0.00 | 0.00 | 69 | 1009.7 |
| 20260903222336 | 91 | 182 | 0.0 | 1.7 | 0.00 | 0.00 | 0.00 | 69 | 1009.7 |
| 20260903221834 | 91 | 215 | 0.0 | 1.7 | 0.00 | 0.00 | 0.00 | 68 | 1009.7 |
| 20260903221330 | 91 | 220 | 0.0 | 0.9 | 0.00 | 0.00 | 0.00 | 67 | 1009.6 |
| 20260903221311 | 92 | 275 | 0.0 | 0.9 | 0.00 | 0.00 | 0.00 | 67 | 1009.6 |
| 20260903220317 | 92 | 180 | 0.9 | 4.3 | 0.00 | 0.00 | 0.00 | 66 | 1009.6 |
| 20260903215806 | 92 | 235 | 1.7 | 4.3 | 0.00 | 0.00 | 0.00 | 65 | 1009.6 |
| 20260903215306 | 93 | 167 | 1.7 | 5.2 | 0.00 | 0.00 | 0.00 | 65 | 1009.6 |
| 20260903214753 | 93 | 119 | 1.7 | 5.2 | 0.00 | 0.00 | 0.00 | 65 | 1009.6 |
| 20260903214252 | 92 | 119 | 1.7 | 6.1 | 0.00 | 0.00 | 0.00 | 65 | 1009.7 |
| 20260903214007 | 93 | 201 | 1.7 | 6.1 | 0.00 | 0.00 | 0.00 | 64 | 1009.7 |
| 20260903213241 | 93 | 159 | 0.9 | 3.5 | 0.00 | 0.00 | 0.00 | 64 | 1009.7 |
| 20260903212735 | 93 | 156 | 0.0 | 2.6 | 0.00 | 0.00 | 0.00 | 64 | 1009.6 |
| 20260903212222 | 93 | 187 | 0.9 | 5.2 | 0.00 | 0.00 | 0.00 | 65 | 1009.6 |
| 20260903211722 | 92 | 230 | 1.7 | 6.1 | 0.00 | 0.00 | 0.00 | 65 | 1009.6 |
| 20260903211216 | 92 | 221 | 1.7 | 6.1 | 0.00 | 0.00 | 0.00 | 64 | 1009.7 |
| 20260903210710 | 92 | 109 | 1.7 | 4.3 | 0.00 | 0.00 | 0.00 | 65 | 1009.7 |
| 20260903210204 | 92 | 119 | 1.7 | 6.1 | 0.00 | 0.00 | 0.00 | 65 | 1009.7 |
| 20260903205653 | 92 | 111 | 1.7 | 6.1 | 0.00 | 0.00 | 0.00 | 64 | 1009.8 |
| 20260903205151 | 92 | 125 | 1.7 | 4.3 | 0.00 | 0.00 | 0.00 | 65 | 1009.8 |
| 20260903204647 | 92 | 150 | 1.7 | 4.3 | 0.00 | 0.00 | 0.00 | 66 | 1009.8 |
| 20260903204140 | 92 | 113 | 1.7 | 6.1 | 0.00 | 0.00 | 0.00 | 65 | 1010.0 |
| 20260903203854 | 91 | 110 | 1.7 | 6.1 | 0.00 | 0.00 | 0.00 | 66 | 1010.0 |
| 20260903203128 | 91 | 115 | 2.6 | 7.0 | 0.00 | 0.00 | 0.00 | 66 | 1010.0 |
| 20260903202623 | 91 | 55 | 2.6 | 7.0 | 0.00 | 0.00 | 0.00 | 66 | 1010.1 |
| 20260903202112 | 91 | 126 | 2.6 | 7.0 | 0.00 | 0.00 | 0.00 | 66 | 1010.1 |
| 20260903201611 | 91 | 111 | 1.7 | 7.0 | 0.00 | 0.00 | 0.00 | 65 | 1010.1 |
| 20260903201105 | 91 | 121 | 0.9 | 6.1 | 0.00 | 0.00 | 0.00 | 65 | 1010.1 |
| 20260903200830 | 91 | 76 | 1.7 | 7.0 | 0.00 | 0.00 | 0.00 | 65 | 1010.1 |
| 20260903200051 | 91 | 71 | 3.5 | 7.8 | 0.00 | 0.00 | 0.00 | 65 | 1010.1 |
| 20260903195804 | 92 | 96 | 2.6 | 7.8 | 0.00 | 0.00 | 0.00 | 64 | 1010.2 |
| 20260903195039 | 92 | 71 | 0.9 | 7.8 | 0.00 | 0.00 | 0.00 | 64 | 1010.2 |
| 20260903194533 | 92 | 140 | 0.9 | 2.6 | 0.00 | 0.00 | 0.00 | 64 | 1010.2 |
| 20260903194253 | 92 | 146 | 0.0 | 2.6 | 0.00 | 0.00 | 0.00 | 64 | 1010.4 |
| 20260903193746 | 92 | 15 | 0.0 | 2.6 | 0.00 | 0.00 | 0.00 | 63 | 1010.4 |
| 20260903193024 | 92 | 64 | 0.9 | 3.5 | 0.00 | 0.00 | 0.00 | 65 | 1010.4 |
| 20260903192525 | 91 | 131 | 1.7 | 4.3 | 0.00 | 0.00 | 0.00 | 65 | 1010.8 |
| 20260903192022 | 91 | 104 | 1.7 | 6.1 | 0.00 | 0.00 | 0.00 | 65 | 1010.8 |
| 20260903191522 | 90 | 14 | 2.6 | 7.0 | 0.00 | 0.00 | 0.00 | 66 | 1010.8 |
| 20260903191020 | 91 | 60 | 2.6 | 7.0 | 0.00 | 0.00 | 0.00 | 65 | 1010.9 |
| 20260903190520 | 91 | 81 | 1.7 | 7.0 | 0.00 | 0.00 | 0.00 | 65 | 1010.9 |
| 20260903190244 | 90 | 41 | 2.6 | 7.0 | 0.00 | 0.00 | 0.00 | 65 | 1010.9 |
| 20260903185958 | 90 | 17 | 2.6 | 6.1 | 0.00 | 0.00 | 0.00 | 66 | 1010.9 |
| 20260903185023 | 90 | 119 | 3.5 | 7.8 | 0.00 | 0.00 | 0.00 | 67 | 1010.9 |
| 20260903184744 | 90 | 289 | 3.5 | 7.8 | 0.00 | 0.00 | 0.00 | 67 | 1010.9 |
| 20260903184018 | 90 | 44 | 2.6 | 7.8 | 0.00 | 0.00 | 0.00 | 67 | 1011.0 |
| 20260903183506 | 89 | 71 | 2.6 | 7.8 | 0.00 | 0.00 | 0.00 | 67 | 1011.0 |
| 20260903182954 | 89 | 341 | 2.6 | 7.8 | 0.00 | 0.00 | 0.00 | 66 | 1011.3 |
| 20260903182443 | 89 | 28 | 3.5 | 7.0 | 0.00 | 0.00 | 0.00 | 68 | 1011.3 |
| 20260903181931 | 89 | 0 | 3.5 | 7.0 | 0.00 | 0.00 | 0.00 | 66 | 1011.3 |
| 20260903181644 | 89 | 70 | 4.3 | 9.6 | 0.00 | 0.00 | 0.00 | 67 | 1011.3 |
| 20260903180920 | 89 | 27 | 5.2 | 9.6 | 0.00 | 0.00 | 0.00 | 68 | 1011.3 |
| 20260903180415 | 89 | 355 | 5.2 | 10.4 | 0.00 | 0.00 | 0.00 | 68 | 1011.3 |
| 20260903175908 | 89 | 348 | 5.2 | 10.4 | 0.00 | 0.00 | 0.00 | 68 | 1011.3 |
| 20260903175404 | 89 | 33 | 5.2 | 10.4 | 0.00 | 0.00 | 0.00 | 68 | 1011.3 |
| 20260903174856 | 90 | 36 | 5.2 | 10.4 | 0.00 | 0.00 | 0.00 | 67 | 1011.3 |
| 20260903174612 | 90 | 355 | 4.3 | 8.7 | 0.00 | 0.00 | 0.00 | 67 | 1011.3 |
| 20260903173839 | 90 | 336 | 2.6 | 7.8 | 0.00 | 0.00 | 0.00 | 66 | 1011.3 |
| 20260903173337 | 90 | 311 | 2.6 | 7.0 | 0.00 | 0.00 | 0.00 | 65 | 1011.3 |
| 20260903172831 | 90 | 221 | 3.5 | 7.0 | 0.00 | 0.00 | 0.00 | 66 | 1011.4 |
| 20260903172325 | 90 | 252 | 3.5 | 7.8 | 0.00 | 0.00 | 0.00 | 65 | 1011.4 |
| 20260903171819 | 90 | 130 | 3.5 | 7.8 | 0.00 | 0.00 | 0.00 | 66 | 1011.4 |
| 20260903171531 | 90 | 9 | 4.3 | 10.4 | 0.00 | 0.00 | 0.00 | 66 | 1011.3 |
| 20260903170807 | 90 | 41 | 3.5 | 10.4 | 0.00 | 0.00 | 0.00 | 65 | 1011.3 |
| 20260903170303 | 90 | 344 | 2.6 | 7.0 | 0.00 | 0.00 | 0.00 | 67 | 1011.3 |
| 20260903165755 | 90 | 5 | 3.5 | 7.8 | 0.00 | 0.00 | 0.00 | 67 | 1010.9 |
| 20260903164738 | 89 | 283 | 4.3 | 8.7 | 0.00 | 0.00 | 0.00 | 67 | 1010.9 |
| 20260903164237 | 89 | 188 | 4.3 | 8.7 | 0.00 | 0.00 | 0.00 | 69 | 1010.8 |
| 20260903164205 | 89 | 235 | 4.3 | 7.8 | 0.00 | 0.00 | 0.00 | 68 | 1010.8 |
| 20260903163224 | 89 | 201 | 3.5 | 7.8 | 0.00 | 0.00 | 0.00 | 68 | 1010.8 |
| 20260903162720 | 89 | 205 | 2.6 | 6.1 | 0.00 | 0.00 | 0.00 | 69 | 1010.9 |
| 20260903162215 | 88 | 242 | 3.5 | 7.8 | 0.00 | 0.00 | 0.00 | 69 | 1010.9 |
| 20260903161709 | 88 | 213 | 3.5 | 7.8 | 0.00 | 0.00 | 0.00 | 70 | 1010.9 |
| 20260903161156 | 88 | 190 | 3.5 | 9.6 | 0.00 | 0.00 | 0.00 | 70 | 1010.8 |
| 20260903160656 | 88 | 226 | 3.5 | 9.6 | 0.00 | 0.00 | 0.00 | 69 | 1010.8 |
| 20260903160146 | 88 | 221 | 2.6 | 7.0 | 0.00 | 0.00 | 0.00 | 70 | 1010.8 |
| 20260903155643 | 87 | 227 | 3.5 | 7.8 | 0.00 | 0.00 | 0.00 | 71 | 1010.8 |
| 20260903155353 | 87 | 236 | 3.5 | 7.8 | 0.00 | 0.00 | 0.00 | 70 | 1010.8 |
| 20260903154627 | 87 | 222 | 3.5 | 8.7 | 0.00 | 0.00 | 0.00 | 70 | 1010.8 |
| 20260903154353 | 87 | 236 | 3.5 | 8.7 | 0.00 | 0.00 | 0.00 | 71 | 1010.9 |
| 20260903153618 | 86 | 198 | 3.5 | 7.8 | 0.00 | 0.00 | 0.00 | 72 | 1010.9 |
| 20260903153558 | 86 | 244 | 3.5 | 7.8 | 0.00 | 0.00 | 0.00 | 73 | 1010.9 |
| 20260903152837 | 86 | 213 | 3.5 | 8.7 | 0.00 | 0.00 | 0.00 | 73 | 1010.9 |
| 20260903152324 | 85 | 242 | 4.3 | 8.7 | 0.00 | 0.00 | 0.00 | 73 | 1010.9 |
| 20260903151555 | 85 | 254 | 4.3 | 9.6 | 0.00 | 0.00 | 0.00 | 73 | 1010.9 |
| 20260903151045 | 85 | 257 | 4.3 | 9.6 | 0.00 | 0.00 | 0.00 | 73 | 1010.9 |
| 20260903150543 | 85 | 230 | 4.3 | 8.7 | 0.00 | 0.00 | 0.00 | 74 | 1010.9 |
| 20260903150036 | 85 | 238 | 3.5 | 8.7 | 0.00 | 0.00 | 0.00 | 75 | 1010.9 |
| 20260903145530 | 84 | 173 | 2.6 | 6.1 | 0.00 | 0.00 | 0.00 | 75 | 1010.9 |
| 20260903145249 | 84 | 232 | 3.5 | 7.0 | 0.00 | 0.00 | 0.00 | 75 | 1010.9 |
| 20260903144516 | 84 | 248 | 3.5 | 7.0 | 0.00 | 0.00 | 0.00 | 76 | 1010.9 |
| 20260903144006 | 84 | 231 | 3.5 | 7.8 | 0.00 | 0.00 | 0.00 | 75 | 1010.9 |
| 20260903143454 | 84 | 290 | 3.5 | 7.8 | 0.00 | 0.00 | 0.00 | 75 | 1010.9 |
| 20260903142942 | 83 | 258 | 4.3 | 7.0 | 0.00 | 0.00 | 0.00 | 76 | 1010.8 |
| 20260903142508 | 83 | 198 | 4.3 | 7.8 | 0.00 | 0.00 | 0.00 | 76 | 1010.8 |
| 20260903141847 | 82 | 227 | 4.3 | 7.8 | 0.00 | 0.00 | 0.00 | 77 | 1010.8 |
| 20260903141117 | 82 | 212 | 4.3 | 7.8 | 0.00 | 0.00 | 0.00 | 78 | 1010.8 |
| 20260903140341 | 82 | 221 | 3.5 | 7.8 | 0.00 | 0.00 | 0.00 | 78 | 1010.8 |
| 20260903135828 | 81 | 232 | 3.5 | 7.0 | 0.00 | 0.00 | 0.00 | 80 | 1010.8 |
| 20260903135316 | 81 | 240 | 3.5 | 7.0 | 0.00 | 0.00 | 0.00 | 80 | 1010.8 |
| 20260903134811 | 80 | 195 | 2.6 | 7.0 | 0.00 | 0.00 | 0.00 | 81 | 1010.8 |
| 20260903134306 | 80 | 207 | 3.5 | 8.7 | 0.00 | 0.00 | 0.00 | 81 | 1010.8 |
| 20260903133755 | 80 | 225 | 4.3 | 8.7 | 0.00 | 0.00 | 0.00 | 82 | 1010.8 |
| 20260903133252 | 79 | 246 | 3.5 | 8.7 | 0.00 | 0.00 | 0.00 | 82 | 1010.8 |
| 20260903132746 | 79 | 196 | 3.5 | 8.7 | 0.00 | 0.00 | 0.00 | 83 | 1010.9 |
| 20260903132459 | 78 | 181 | 3.5 | 7.8 | 0.00 | 0.00 | 0.00 | 83 | 1010.9 |
| 20260903131956 | 78 | 244 | 2.6 | 7.8 | 0.00 | 0.00 | 0.00 | 84 | 1010.9 |
| 20260903131452 | 78 | 229 | 2.6 | 7.8 | 0.00 | 0.00 | 0.00 | 84 | 1011.0 |
| 20260903130948 | 77 | 169 | 2.6 | 6.1 | 0.00 | 0.00 | 0.00 | 84 | 1011.0 |
| 20260903130211 | 77 | 225 | 2.6 | 6.1 | 0.00 | 0.00 | 0.00 | 85 | 1011.0 |
| 20260903125710 | 77 | 213 | 2.6 | 6.1 | 0.00 | 0.00 | 0.00 | 85 | 1011.1 |
| 20260903125206 | 77 | 214 | 2.6 | 4.3 | 0.00 | 0.00 | 0.00 | 85 | 1011.1 |
| 20260903124658 | 76 | 177 | 2.6 | 4.3 | 0.00 | 0.00 | 0.00 | 86 | 1011.1 |
| 20260903124151 | 76 | 196 | 1.7 | 4.3 | 0.00 | 0.00 | 0.00 | 86 | 1011.1 |
| 20260903123641 | 76 | 215 | 1.7 | 4.3 | 0.00 | 0.00 | 0.00 | 86 | 1011.1 |
| 20260903123140 | 76 | 207 | 0.9 | 3.5 | 0.00 | 0.00 | 0.00 | 87 | 1011.1 |
| 20260903122635 | 75 | 148 | 0.9 | 3.5 | 0.00 | 0.00 | 0.00 | 87 | 1011.1 |
| 20260903122128 | 75 | 200 | 0.9 | 3.5 | 0.00 | 0.00 | 0.00 | 87 | 1011.1 |
| 20260903121623 | 75 | 219 | 0.9 | 4.3 | 0.00 | 0.00 | 0.00 | 87 | 1011.1 |
| 20260903121113 | 75 | 217 | 0.9 | 4.3 | 0.00 | 0.00 | 0.00 | 87 | 1011.0 |
| 20260903120833 | 75 | 178 | 0.9 | 2.6 | 0.00 | 0.00 | 0.00 | 87 | 1011.0 |
| 20260903120104 | 75 | 191 | 0.9 | 2.6 | 0.00 | 0.00 | 0.00 | 87 | 1011.0 |
| 20260903115640 | 75 | 211 | 0.9 | 2.6 | 0.00 | 0.00 | 0.00 | 87 | 1011.0 |
| 20260903114805 | 74 | 178 | 0.9 | 3.5 | 0.00 | 0.00 | 0.00 | 87 | 1011.0 |
| 20260903114040 | 74 | 191 | 0.9 | 3.5 | 0.00 | 0.00 | 0.00 | 87 | 1010.9 |
| 20260903113535 | 74 | 207 | 0.9 | 3.5 | 0.00 | 0.00 | 0.00 | 87 | 1010.9 |
| 20260903113029 | 74 | 224 | 0.9 | 3.5 | 0.00 | 0.00 | 0.00 | 87 | 1010.9 |
| 20260903112523 | 75 | 180 | 0.9 | 3.5 | 0.00 | 0.00 | 0.00 | 87 | 1010.9 |
| 20260903112015 | 75 | 237 | 0.0 | 3.5 | 0.00 | 0.00 | 0.00 | 87 | 1010.9 |
| 20260903111511 | 75 | 213 | 0.9 | 2.6 | 0.00 | 0.00 | 0.00 | 87 | 1010.9 |
| 20260903111000 | 75 | 219 | 0.9 | 2.6 | 0.00 | 0.00 | 0.00 | 87 | 1010.9 |
| 20260903110458 | 75 | 236 | 0.9 | 3.5 | 0.00 | 0.00 | 0.00 | 87 | 1010.9 |
| 20260903105952 | 75 | 229 | 0.9 | 3.5 | 0.00 | 0.00 | 0.00 | 86 | 1010.8 |
| 20260903105445 | 75 | 221 | 1.7 | 3.5 | 0.00 | 0.00 | 0.00 | 86 | 1010.8 |
| 20260903104940 | 75 | 223 | 1.7 | 4.3 | 0.00 | 0.00 | 0.00 | 86 | 1010.8 |
| 20260903104432 | 75 | 223 | 0.9 | 4.3 | 0.00 | 0.00 | 0.00 | 86 | 1010.8 |
| 20260903104141 | 75 | 234 | 1.7 | 4.3 | 0.00 | 0.00 | 0.00 | 86 | 1010.8 |
| 20260903103407 | 75 | 244 | 1.7 | 5.2 | 0.00 | 0.00 | 0.00 | 86 | 1010.8 |
| 20260903103118 | 75 | 225 | 1.7 | 5.2 | 0.00 | 0.00 | 0.00 | 86 | 1010.8 |
| 20260903102358 | 75 | 194 | 1.7 | 3.5 | 0.00 | 0.00 | 0.00 | 86 | 1010.8 |
| 20260903101859 | 75 | 161 | 1.7 | 5.2 | 0.00 | 0.00 | 0.00 | 86 | 1010.8 |
| 20260903101359 | 75 | 190 | 1.7 | 5.2 | 0.00 | 0.00 | 0.00 | 86 | 1010.8 |
| 20260903100859 | 75 | 226 | 0.9 | 3.5 | 0.00 | 0.00 | 0.00 | 86 | 1010.8 |
| 20260903100358 | 76 | 196 | 0.9 | 2.6 | 0.00 | 0.00 | 0.00 | 86 | 1010.8 |
| 20260903095901 | 76 | 213 | 1.7 | 4.3 | 0.00 | 0.00 | 0.00 | 86 | 1010.8 |
| 20260903095401 | 76 | 224 | 1.7 | 4.3 | 0.00 | 0.00 | 0.00 | 86 | 1010.8 |
| 20260903094857 | 76 | 213 | 0.9 | 3.5 | 0.00 | 0.00 | 0.00 | 86 | 1010.8 |
| 20260903094620 | 76 | 222 | 0.9 | 3.5 | 0.00 | 0.00 | 0.00 | 86 | 1010.8 |
| 20260903093851 | 76 | 213 | 1.7 | 3.5 | 0.00 | 0.00 | 0.00 | 86 | 1010.8 |
| 20260903093347 | 76 | 188 | 1.7 | 5.2 | 0.00 | 0.00 | 0.00 | 86 | 1010.8 |
| 20260903092840 | 76 | 225 | 1.7 | 3.5 | 0.00 | 0.00 | 0.00 | 86 | 1010.7 |
| 20260903092330 | 76 | 215 | 0.9 | 3.5 | 0.00 | 0.00 | 0.00 | 86 | 1010.7 |
| 20260903091825 | 76 | 203 | 0.9 | 2.6 | 0.00 | 0.00 | 0.00 | 86 | 1010.7 |
| 20260903091320 | 76 | 231 | 0.9 | 2.6 | 0.00 | 0.00 | 0.00 | 86 | 1010.4 |
| 20260903091032 | 76 | 216 | 0.9 | 2.6 | 0.00 | 0.00 | 0.00 | 86 | 1010.4 |
| 20260903090308 | 76 | 205 | 0.9 | 2.6 | 0.00 | 0.00 | 0.00 | 86 | 1010.4 |
| 20260903085800 | 76 | 197 | 0.9 | 2.6 | 0.00 | 0.00 | 0.00 | 86 | 1010.4 |
| 20260903085255 | 76 | 200 | 0.9 | 2.6 | 0.00 | 0.00 | 0.00 | 86 | 1010.4 |
| 20260903084750 | 77 | 218 | 0.9 | 2.6 | 0.00 | 0.00 | 0.00 | 86 | 1010.4 |
| 20260903084239 | 77 | 196 | 0.9 | 4.3 | 0.00 | 0.00 | 0.00 | 86 | 1010.4 |
| 20260903083738 | 77 | 212 | 0.9 | 4.3 | 0.00 | 0.00 | 0.00 | 86 | 1010.4 |
| 20260903083225 | 77 | 231 | 0.9 | 4.3 | 0.00 | 0.00 | 0.00 | 86 | 1010.4 |
| 20260903082725 | 77 | 220 | 0.0 | 1.7 | 0.00 | 0.00 | 0.00 | 86 | 1010.4 |
| 20260903082220 | 77 | 194 | 0.0 | 1.7 | 0.00 | 0.00 | 0.00 | 86 | 1010.4 |
| 20260903081714 | 77 | 193 | 0.9 | 2.6 | 0.00 | 0.00 | 0.00 | 86 | 1010.4 |
| 20260903081208 | 77 | 239 | 0.9 | 3.5 | 0.00 | 0.00 | 0.00 | 85 | 1010.4 |
| 20260903080653 | 77 | 229 | 0.9 | 3.5 | 0.00 | 0.00 | 0.00 | 86 | 1010.4 |
| 20260903080157 | 78 | 234 | 1.7 | 4.3 | 0.00 | 0.00 | 0.00 | 86 | 1010.4 |
| 20260903075650 | 78 | 216 | 2.6 | 5.2 | 0.00 | 0.00 | 0.00 | 86 | 1010.4 |
| 20260903075401 | 78 | 230 | 2.6 | 6.1 | 0.00 | 0.00 | 0.00 | 86 | 1010.4 |
| 20260903074637 | 78 | 231 | 2.6 | 6.1 | 0.00 | 0.00 | 0.00 | 86 | 1010.4 |
| 20260903074130 | 78 | 217 | 2.6 | 5.2 | 0.00 | 0.00 | 0.00 | 86 | 1010.3 |
| 20260903073625 | 78 | 227 | 2.6 | 5.2 | 0.00 | 0.00 | 0.00 | 86 | 1010.3 |
| 20260903073119 | 78 | 221 | 1.7 | 4.3 | 0.00 | 0.00 | 0.00 | 86 | 1010.3 |
| 20260903072841 | 77 | 227 | 0.9 | 4.3 | 0.00 | 0.00 | 0.00 | 87 | 1010.4 |
| 20260903072108 | 77 | 211 | 0.0 | 1.7 | 0.00 | 0.00 | 0.00 | 87 | 1010.4 |
| 20260903071600 | 78 | 189 | 0.0 | 0.9 | 0.00 | 0.00 | 0.00 | 87 | 1010.4 |
| 20260903071056 | 78 | 214 | 0.0 | 0.9 | 0.00 | 0.00 | 0.00 | 87 | 1010.3 |
| 20260903070541 | 78 | 209 | 0.0 | 0.9 | 0.00 | 0.00 | 0.00 | 87 | 1010.3 |
| 20260903070044 | 78 | 200 | 0.0 | 0.0 | 0.00 | 0.00 | 0.00 | 87 | 1010.3 |
| 20260903065537 | 78 | 199 | 0.0 | 0.0 | 0.00 | 0.00 | 0.00 | 87 | 1010.3 |
| 20260903065032 | 78 | 219 | 0.0 | 0.0 | 0.00 | 0.00 | 0.00 | 87 | 1010.3 |
| 20260903064524 | 78 | 238 | 0.0 | 0.0 | 0.00 | 0.00 | 0.00 | 87 | 1010.3 |
| 20260903064019 | 78 | 228 | 0.0 | 0.0 | 0.00 | 0.00 | 0.00 | 87 | 1010.3 |
| 20260903063513 | 78 | 207 | 0.0 | 0.0 | 0.00 | 0.00 | 0.00 | 87 | 1010.3 |
| 20260903063229 | 78 | 153 | 0.0 | 0.0 | 0.00 | 0.00 | 0.00 | 87 | 1010.3 |
| 20260903062716 | 78 | 236 | 0.0 | 0.0 | 0.00 | 0.00 | 0.00 | 87 | 1010.3 |
| 20260903061942 | 78 | 214 | 0.0 | 0.0 | 0.00 | 0.00 | 0.00 | 87 | 1010.3 |
| 20260903061430 | 78 | 213 | 0.0 | 0.9 | 0.00 | 0.00 | 0.00 | 87 | 1010.5 |
| 20260903060923 | 78 | 212 | 0.0 | 1.7 | 0.00 | 0.00 | 0.00 | 87 | 1010.5 |
| 20260903060423 | 78 | 219 | 0.9 | 1.7 | 0.00 | 0.00 | 0.00 | 87 | 1010.5 |
| 20260903055923 | 78 | 227 | 0.9 | 3.5 | 0.00 | 0.00 | 0.00 | 87 | 1010.4 |
| 20260903055644 | 78 | 227 | 1.7 | 3.5 | 0.00 | 0.00 | 0.00 | 87 | 1010.4 |
| 20260903054926 | 78 | 238 | 1.7 | 4.3 | 0.00 | 0.00 | 0.00 | 87 | 1010.4 |
| 20260903054423 | 78 | 236 | 1.7 | 4.3 | 0.00 | 0.00 | 0.00 | 86 | 1010.4 |
| 20260903053923 | 78 | 238 | 1.7 | 3.5 | 0.00 | 0.00 | 0.00 | 87 | 1010.4 |
| 20260903053421 | 78 | 228 | 1.7 | 3.5 | 0.00 | 0.00 | 0.00 | 86 | 1010.4 |
| 20260903052920 | 78 | 217 | 1.7 | 3.5 | 0.00 | 0.00 | 0.00 | 86 | 1010.3 |
| 20260903052419 | 78 | 225 | 1.7 | 3.5 | 0.00 | 0.00 | 0.00 | 86 | 1010.3 |
| 20260903051913 | 78 | 223 | 1.7 | 3.5 | 0.00 | 0.00 | 0.00 | 86 | 1010.3 |
| 20260903051409 | 78 | 226 | 1.7 | 3.5 | 0.00 | 0.00 | 0.00 | 86 | 1010.2 |
| 20260903050903 | 78 | 226 | 0.9 | 3.5 | 0.00 | 0.00 | 0.00 | 86 | 1010.2 |
| 20260903050352 | 79 | 213 | 0.9 | 2.6 | 0.00 | 0.00 | 0.00 | 86 | 1010.2 |
| 20260903045850 | 79 | 212 | 0.0 | 2.6 | 0.00 | 0.00 | 0.00 | 86 | 1010.2 |
| 20260903045339 | 79 | 217 | 0.0 | 0.0 | 0.00 | 0.00 | 0.00 | 86 | 1010.2 |
| 20260903044825 | 79 | 204 | 0.9 | 2.6 | 0.00 | 0.00 | 0.00 | 86 | 1010.2 |
| 20260903044313 | 79 | 218 | 1.7 | 4.3 | 0.00 | 0.00 | 0.00 | 86 | 1010.2 |
| 20260903043803 | 79 | 199 | 1.7 | 4.3 | 0.00 | 0.00 | 0.00 | 86 | 1010.2 |
| 20260903043251 | 79 | 159 | 0.9 | 2.6 | 0.00 | 0.00 | 0.00 | 85 | 1010.2 |
| 20260903042737 | 79 | 209 | 1.7 | 5.2 | 0.00 | 0.00 | 0.00 | 85 | 1010.2 |
| 20260903042228 | 79 | 218 | 0.9 | 5.2 | 0.00 | 0.00 | 0.00 | 85 | 1010.2 |
| 20260903041720 | 79 | 195 | 0.9 | 3.5 | 0.00 | 0.00 | 0.00 | 85 | 1010.2 |
| 20260903041213 | 80 | 221 | 1.7 | 3.5 | 0.00 | 0.00 | 0.00 | 85 | 1010.2 |
| 20260903040704 | 80 | 223 | 1.7 | 3.5 | 0.00 | 0.00 | 0.00 | 85 | 1010.2 |
| 20260903040201 | 80 | 187 | 1.7 | 4.3 | 0.00 | 0.00 | 0.00 | 85 | 1010.2 |
| 20260903035656 | 80 | 221 | 0.9 | 3.5 | 0.00 | 0.00 | 0.00 | 85 | 1010.2 |
| 20260903035410 | 80 | 173 | 0.9 | 3.5 | 0.00 | 0.00 | 0.00 | 85 | 1010.2 |
| 20260903034643 | 80 | 231 | 0.9 | 3.5 | 0.00 | 0.00 | 0.00 | 85 | 1010.2 |
| 20260903034137 | 80 | 219 | 1.7 | 3.5 | 0.00 | 0.00 | 0.00 | 85 | 1010.1 |
| 20260903033633 | 80 | 222 | 1.7 | 3.5 | 0.00 | 0.00 | 0.00 | 85 | 1010.1 |
| 20260903033122 | 80 | 225 | 1.7 | 3.5 | 0.00 | 0.00 | 0.00 | 85 | 1010.1 |
| 20260903032620 | 80 | 219 | 0.9 | 3.5 | 0.00 | 0.00 | 0.00 | 85 | 1010.2 |
| 20260903032115 | 80 | 198 | 0.9 | 3.5 | 0.00 | 0.00 | 0.00 | 85 | 1010.2 |
| 20260903031609 | 80 | 220 | 1.7 | 4.3 | 0.00 | 0.00 | 0.00 | 85 | 1010.2 |
| 20260903031103 | 81 | 215 | 1.7 | 4.3 | 0.00 | 0.00 | 0.00 | 85 | 1010.1 |
| 20260903030551 | 81 | 217 | 1.7 | 3.5 | 0.00 | 0.00 | 0.00 | 85 | 1010.1 |
| 20260903030049 | 81 | 232 | 1.7 | 3.5 | 0.00 | 0.00 | 0.00 | 84 | 1010.1 |
| 20260903025544 | 81 | 223 | 0.9 | 2.6 | 0.00 | 0.00 | 0.00 | 84 | 1010.2 |
| 20260903025037 | 81 | 218 | 0.9 | 2.6 | 0.00 | 0.00 | 0.00 | 84 | 1010.2 |
| 20260903024531 | 81 | 200 | 1.7 | 3.5 | 0.00 | 0.00 | 0.00 | 84 | 1010.2 |
| 20260903024021 | 81 | 213 | 1.7 | 4.3 | 0.00 | 0.00 | 0.00 | 84 | 1010.2 |
| 20260903023519 | 82 | 218 | 2.6 | 4.3 | 0.00 | 0.00 | 0.00 | 83 | 1010.2 |
| 20260903023014 | 82 | 227 | 1.7 | 4.3 | 0.00 | 0.00 | 0.00 | 83 | 1010.2 |
| 20260903022507 | 82 | 232 | 1.7 | 4.3 | 0.00 | 0.00 | 0.00 | 83 | 1010.0 |
| 20260903022228 | 82 | 192 | 1.7 | 3.5 | 0.00 | 0.00 | 0.00 | 82 | 1010.0 |
| 20260903021455 | 82 | 217 | 1.7 | 2.6 | 0.00 | 0.00 | 0.00 | 82 | 1010.1 |
| 20260903020951 | 82 | 190 | 1.7 | 4.3 | 0.00 | 0.00 | 0.00 | 82 | 1010.1 |
| 20260903020444 | 82 | 207 | 1.7 | 4.3 | 0.00 | 0.00 | 0.00 | 82 | 1010.1 |
| 20260903015938 | 82 | 167 | 1.7 | 3.5 | 0.00 | 0.00 | 0.00 | 82 | 1010.0 |
| 20260903015432 | 83 | 181 | 0.9 | 3.5 | 0.00 | 0.00 | 0.00 | 82 | 1010.0 |
| 20260903014926 | 83 | 233 | 0.9 | 2.6 | 0.00 | 0.00 | 0.00 | 81 | 1010.0 |
| 20260903014419 | 83 | 188 | 0.9 | 3.5 | 0.00 | 0.00 | 0.00 | 81 | 1010.0 |
| 20260903013909 | 83 | 184 | 0.9 | 3.5 | 0.00 | 0.00 | 0.00 | 81 | 1010.0 |
| 20260903013407 | 83 | 194 | 0.9 | 2.6 | 0.00 | 0.00 | 0.00 | 81 | 1010.0 |
| 20260903013128 | 84 | 219 | 0.9 | 2.6 | 0.00 | 0.00 | 0.00 | 81 | 1009.7 |
| 20260903012354 | 84 | 229 | 0.9 | 5.2 | 0.00 | 0.00 | 0.00 | 80 | 1009.7 |
| 20260903011850 | 84 | 229 | 1.7 | 5.2 | 0.00 | 0.00 | 0.00 | 80 | 1009.7 |
| 20260903011342 | 84 | 214 | 1.7 | 4.3 | 0.00 | 0.00 | 0.00 | 79 | 1009.6 |
| 20260903010837 | 84 | 204 | 1.7 | 4.3 | 0.00 | 0.00 | 0.00 | 79 | 1009.6 |
| 20260903010329 | 85 | 211 | 1.7 | 4.3 | 0.00 | 0.00 | 0.00 | 79 | 1009.6 |
| 20260903005822 | 85 | 176 | 1.7 | 5.2 | 0.00 | 0.00 | 0.00 | 79 | 1009.5 |
| 20260903005322 | 85 | 248 | 1.7 | 5.2 | 0.00 | 0.00 | 0.00 | 78 | 1009.5 |
| 20260903004822 | 85 | 232 | 0.9 | 3.5 | 0.00 | 0.00 | 0.00 | 78 | 1009.5 |
| 20260903004322 | 85 | 169 | 0.9 | 3.5 | 0.00 | 0.00 | 0.00 | 78 | 1009.5 |
| 20260903003822 | 86 | 217 | 1.7 | 5.2 | 0.00 | 0.00 | 0.00 | 78 | 1009.5 |
| 20260903003323 | 86 | 239 | 2.6 | 5.2 | 0.00 | 0.00 | 0.00 | 77 | 1009.5 |
| 20260903002825 | 86 | 192 | 1.7 | 5.2 | 0.00 | 0.00 | 0.00 | 77 | 1009.5 |
| 20260903002320 | 87 | 194 | 1.7 | 5.2 | 0.00 | 0.00 | 0.00 | 76 | 1009.5 |
| 20260903001822 | 87 | 189 | 1.7 | 4.3 | 0.00 | 0.00 | 0.00 | 76 | 1009.5 |
| 20260903001317 | 87 | 230 | 1.7 | 4.3 | 0.00 | 0.00 | 0.00 | 76 | 1009.5 |
| 20260903001030 | 87 | 203 | 1.7 | 4.3 | 0.00 | 0.00 | 0.00 | 75 | 1009.5 |
| 20260903000304 | 88 | 184 | 1.7 | 6.1 | 0.00 | 0.00 | 0.00 | 75 | 1009.5 |
| 20260902235758 | 88 | 206 | 1.7 | 6.1 | 0.00 | 0.00 | 0.00 | 75 | 1009.7 |